Weather in Ambleside

United Kingdom     54°25′56″N   2°57′35″W
temp.,
°C
wind,
m/s
gust,
m/s
humid.,
%
clouds,
%
prec.,
mm/h
press.,
hPa
HPBL,
m
13 may, thu
thu1301:00+4sw119191 0.0 101010
04:00+4nne1186100 0.0 100911
07:00+6nne2288100 0.0 100972
10:00+10ne2276100 0.0 1009496
13:00+12ene2272100 1.2 1008786
16:00+11ene2482100 3.3 1008653
19:00+8ese2393100 6.2 1010129
22:00+7ene1191100 0.4 101125
14 may, fri
fri1401:00+5ene119369 0.4 101111
04:00+3ne219561 0.0 101111
07:00+5ene119534 0.0 1011111
10:00+8e118294 0.0 1011654
13:00+8se117997 0.1 1010637
16:00+9s227686 0.2 1009789
19:00+9sse337889 0.4 1007688
22:00+5sse118982 0.1 100713
15 may, sat
sat1501:00+6ese1184100 0.1 100515
04:00+6e1186100 0.5 100431
07:00+5e1293100 1.5 100388
10:00+6e1293100 1.3 1002242
13:00+6e1393100 2.9 1001620
16:00+7e1189100 0.3 1001547
19:00+7ese129099 0.8 1000265
22:00+6e1193100 0.2 100013
16 may, sun
sun1601:00+6e119487 0.3 99915
04:00+6se1195100 0.1 99819
07:00+6sse1292100 0.3 998186
10:00+8sse2281100 0.0 998735
13:00+9sse2275100 0.2 997911
16:00+10se127258 0.5 996932
19:00+10ese127351 1.3 996828
22:00+6ene118833 0.3 99711
17 may, mon
mon1701:00+5ne229337 0.3 99715
04:00+3ne229768 0.0 99827
07:00+6nne349484 0.0 1000192
10:00+7n3490100 0.1 1001406
13:00+9n338475 0.4 1003653
16:00+10nnw347797 1.4 10041145
19:00+9nw2384100 3.6 1006365
22:00+7nw229390 1.2 100868